Location: Newark
(44.5208°N, 2.4294°E)
Time: 20:57:38
(UTC+00:00)

Envisat - Pass Details

Date: 23 September 2019
Orbit: 764 x 766 km, 98.1° (Epoch: 21 October)

Event Time Altitude Azimuth Distance (km) Brightness Sun altitude
Rises 19:11:35 0° 207° (SSW) 3,220 6.4 -15.8°
Reaches altitude 10° 19:14:35 10° 226° (SW) 2,300 5.9 -16.3°
Maximum altitude 19:18:02 18° 269° (W) 1,802 5.9 -16.9°
Drops below altitude 10° 19:21:30 10° 313° (NW) 2,311 6.5 -17.5°
Sets 19:24:32 0° 332° (NNW) 3,243 7.0 -18.0°
